CAPE
0 0 0 0 0 0 0 0 0 0 66 544 570 597 510 403 219 134 78 14 0 0 0 0 0 0 0 0 0 0 0 0 0 0 0 0 0 0 0 0 0 0 0
0 0 0 0 0 0 0 0 0 0 0 308 482 631 600 363 431 269 179 57 0 0 0 0 0 0 0 0 0 0 0 0 0 0 0 0 0 0 0 0 0 0 0
0 0 0 0 0 0 0 0 0 0 0 98 442 307 248 85 217 194 270 120 8 0 0 0 0 0 0 0 0 0 0 0 0 0 0 0 0 0 0 0 0 0 0
0 0 0 0 0 0 0 0 0 0 0 3 246 180 227 163 266 350 346 110 26 4 0 0 0 0 0 0 0 0 0 0 0 0 0 0 0 0 0 0 0 0 0
0 0 0 0 0 0 0 0 0 0 0 0 16 38 72 178 264 360 241 67 0 0 0 0 0 0 0 0 0 0 0 0 0 0 0 0 0 0 0 0 0 0 0
0 0 0 0 0 0 0 0 0 0 0 0 0 1 20 60 115 153 177 0 0 0 0 0 0 0 0 0 0 0 0 0 0 0 0 0 0 0 0 0 0 0 0
0 0 0 0 0 0 0 0 0 0 0 0 0 0 0 48 35 49 10 0 0 0 0 0 0 0 0 0 0 0 0 0 0 0 0 0 0 0 0 0 0 0 0
0 0 0 0 0 0 0 0 0 0 0 0 0 0 17 29 26 24 21 4 0 0 0 0 0 0 0 0 0 0 0 0 0 0 0 0 0 0 0 0 0 0 0
0 0 0 0 0 0 0 0 0 0 0 0 0 0 0 12 1 27 40 17 0 0 0 0 0 0 0 0 0 0 0 0 0 0 0 0 0 0 0 0 0 0 0
0 0 0 0 0 0 0 0 0 0 0 0 0 0 0 0 17 11 9 9 0 0 0 0 0 0 0 0 0 0 0 0 0 0 0 0 0 0 0 0 0 0 0
0 0 0 0 0 0 0 0 0 0 0 0 0 0 0 0 0 0 0 0 0 0 0 0 0 0 0 0 0 0 0 0 0 0 0 0 0 0 0 0 0 0 0
0 0 0 0 0 0 0 0 0 0 0 0 0 0 0 0 4 1 0 0 0 0 0 0 0 0 0 0 0 0 0 0 0 0 0 0 0 0 0 0 0 0 0
0 0 0 0 0 0 0 0 0 0 0 0 0 0 0 0 0 0 0 0 0 0 0 0 0 0 0 0 0 0 0 0 0 0 0 0 0 0 0 0 0 0 0
0 0 0 0 0 0 0 0 0 0 0 0 0 0 0 0 0 0 0 0 0 0 0 0 0 0 0 0 0 0 0 0 0 0 0 0 0 0 0 0 0 0 0
0 0 0 0 0 0 0 0 0 0 0 0 0 0 0 0 0 0 0 0 0 0 0 0 0 0 0 0 0 0 0 0 0 0 0 0 0 0 0 0 0 0 0
0 0 0 0 2 2 1 0 0 0 0 0 0 0 0 0 0 0 0 0 0 0 0 0 0 0 0 0 0 0 0 0 0 0 0 0 0 0 0 0 0 0 0
0 0 0 0 3 2 2 2 2 0 0 0 0 0 0 0 0 0 0 0 0 0 0 0 0 0 2 2 1 0 0 0 0 0 0 0 0 0 0 0 0 0 0
0 0 0 1 2 2 1 1 2 0 0 0 0 0 0 0 0 0 0 0 0 0 0 1 1 0 3 4 3 1 0 0 0 0 0 0 0 0 0 0 0 0 0
0 0 0 1 1 2 0 1 1 1 0 0 2 1 1 0 0 1 1 1 1 1 1 0 0 0 1 2 1 0 0 0 0 0 0 0 0 0 0 0 0 0 0
0 0 1 1 1 1 1 0 1 2 0 1 1 1 1 1 1 1 0 0 0 0 0 0 0 2 0 3 0 0 0 0 0 0 0 0 0 0 0 2 0 0 0
0 0 0 3 3 1 1 2 1 0 2 2 1 1 1 1 0 0 0 0 0 0 1 1 0 0 0 0 0 0 0 0 0 0 0 0 0 1 3 3 0 0 0
0 0 0 0 1 1 0 1 1 1 1 1 0 0 0 0 0 0 0 0 0 0 0 0 0 0 0 0 0 0 0 0 0 0 0 0 0 2 0 0 0 0 0
0 0 0 0 0 0 0 0 0 0 0 0 0 0 0 0 0 0 0 0 0 0 0 0 0 0 0 0 0 0 0 0 0 0 0 0 0 0 0 0 0 0 0
0 0 0 0 0 0 0 0 0 0 0 0 0 0 0 0 0 0 0 0 0 0 0 0 0 0 0 0 0 0 0 0 0 0 0 0 0 0 0 0 0 0 0
0 0 0 0 0 0 0 0 0 0 0 0 0 0 0 0 0 0 0 0 0 0 0 0 0 0 0 0 0 0 0 0 0 0 0 0 0 0 0 0 0 0 0
0 0 0 0 0 0 0 0 0 0 0 0 0 0 0 0 0 0 0 0 0 0 0 0 0 0 0 0 0 0 0 0 0 0 0 0 0 0 0 0 0 0 0
CIN
-0 -0 -0 -0 -0 -0 -0 -0 -0 -0 -133 -124 -114 -100 -126 -160 -175 -201 -237 -324 -0 -0 -0 -0 -0 -0 -0 -0 -0 -0 -0 -0 -0 -0 -0 -0 -0 -0 -0 -0 -0 -0 -0
-0 -0 -0 -0 -0 -0 -0 -0 -0 -0 -0 -150 -158 -115 -135 -152 -176 -190 -192 -246 -0 -0 -0 -0 -0 -0 -0 -0 -0 -0 -0 -0 -0 -0 -0 -0 -0 -0 -0 -0 -0 -0 -0
-0 -0 -0 -0 -0 -0 -0 -0 -0 -0 -0 -185 -143 -140 -148 -185 -151 -169 -183 -232 -147 -43 -0 -0 -0 -0 -0 -0 -0 -0 -0 -0 -0 -0 -0 -0 -0 -0 -0 -0 -0 -0 -0
-0 -0 -0 -0 -0 -0 -0 -0 -0 -0 -0 -9 -92 -131 -127 -129 -166 -157 -189 -248 -300 -257 -0 -0 -0 -0 -0 -0 -0 -0 -0 -0 -0 -0 -0 -0 -0 -0 -0 -0 -0 -0 -0
-0 -0 -0 -0 -0 -0 -0 -0 -0 -0 -0 -0 -122 -129 -127 -123 -115 -123 -155 -237 -0 -0 -0 -0 -0 -0 -0 -0 -0 -0 -0 -0 -0 -0 -0 -0 -0 -0 -0 -0 -0 -0 -0
-0 -0 -0 -0 -0 -0 -0 -0 -0 -0 -0 -0 -0 -28 -128 -134 -135 -121 -133 -0 -0 -0 -0 -0 -0 -0 -0 -0 -0 -0 -0 -0 -0 -0 -0 -0 -0 -0 -0 -0 -0 -0 -0
-0 -0 -0 -0 -0 -0 -0 -0 -0 -0 -0 -0 -0 -0 -0 -113 -144 -183 -81 -0 -0 -0 -0 -0 -0 -0 -0 -0 -0 -0 -0 -0 -0 -0 -0 -0 -0 -0 -0 -0 -0 -0 -0
-0 -0 -0 -0 -0 -0 -0 -0 -0 -0 -0 -0 -0 -0 -136 -140 -140 -134 -156 -148 -0 -0 -0 -0 -0 -0 -0 -0 -0 -0 -0 -0 -0 -0 -0 -0 -0 -0 -0 -0 -0 -0 -0
-0 -0 -0 -0 -0 -0 -0 -0 -0 -0 -0 -0 -0 -0 -0 -154 -8 -173 -189 -215 -0 -0 -0 -0 -0 -0 -0 -0 -0 -0 -0 -0 -0 -0 -0 -0 -0 -0 -0 -0 -0 -0 -0
-0 -0 -0 -0 -0 -0 -0 -0 -0 -0 -0 -0 -0 -0 -0 -14 -180 -202 -210 -246 -0 -0 -0 -0 -0 -0 -0 -0 -0 -0 -0 -0 -0 -0 -0 -0 -0 -0 -0 -0 -0 -0 -0
-0 -0 -0 -0 -0 -0 -0 -0 -0 -0 -0 -0 -0 -0 -0 -0 -0 -0 -0 -0 -0 -0 -0 -0 -0 -0 -0 -0 -0 -0 -0 -0 -0 -0 -0 -0 -0 -0 -0 -0 -0 -0 -0
-0 -0 -0 -0 -0 -0 -0 -0 -0 -0 -0 -0 -0 -0 -0 -0 -300 -99 -0 -0 -0 -0 -0 -0 -0 -0 -0 -0 -0 -0 -0 -0 -0 -0 -0 -0 -0 -0 -0 -0 -0 -0 -0
-0 -0 -0 -0 -0 -0 -0 -0 -0 -0 -0 -0 -0 -0 -0 -0 -125 -0 -0 -0 -0 -0 -0 -0 -0 -0 -0 -0 -0 -0 -0 -0 -0 -0 -0 -0 -0 -0 -0 -0 -0 -0 -0
-0 -0 -0 -0 -0 -0 -0 -0 -0 -0 -0 -0 -0 -0 -0 -0 -0 -0 -0 -0 -0 -0 -0 -0 -0 -0 -0 -0 -0 -0 -0 -0 -0 -0 -0 -0 -0 -0 -0 -0 -0 -0 -0
-0 -0 -0 -0 -0 -0 -0 -0 -0 -0 -0 -0 -0 -0 -0 -0 -0 -0 -0 -0 -0 -0 -0 -0 -0 -0 -0 -0 -0 -0 -0 -0 -0 -0 -0 -0 -0 -0 -0 -0 -0 -0 -0
-0 -0 -0 -0 -0 -0 -0 -0 -0 -0 -0 -0 -0 -0 -0 -0 -0 -0 -0 -0 -0 -0 -0 -0 -0 -0 -0 -0 -0 -0 -0 -0 -0 -0 -0 -0 -0 -0 -0 -0 -0 -0 -0
-0 -0 -0 -0 -0 -0 -0 -0 -0 -0 -0 -0 -0 -0 -0 -0 -0 -0 -0 -0 -0 -0 -0 -0 -0 -0 -0 -0 -0 -0 -0 -0 -0 -0 -0 -0 -0 -0 -0 -0 -0 -0 -0
-0 -0 -0 -0 -0 -0 -0 -0 -0 -0 -0 -0 -0 -0 -0 -0 -0 -0 -0 -0 -0 -0 -0 -0 -0 -0 -0 -0 -0 -0 -0 -0 -0 -0 -0 -0 -0 -0 -0 -0 -0 -0 -0
-0 -0 -0 -0 -0 -0 -0 -0 -0 -0 -0 -0 -0 -0 -0 -0 -0 -0 -0 -0 -0 -0 -0 -0 -0 -0 -0 -0 -0 -0 -0 -0 -0 -0 -0 -0 -0 -0 -0 -0 -0 -0 -0
-0 -0 -0 -0 -0 -0 -0 -0 -0 -0 -0 -0 -0 -0 -0 -0 -0 -0 -0 -0 -0 -0 -0 -0 -0 -0 -0 -0 -0 -0 -0 -0 -0 -0 -0 -0 -0 -0 -1 -1 -0 -0 -0
-0 -0 -0 -0 -0 -0 -0 -0 -0 -0 -0 -0 -0 -0 -0 -0 -0 -0 -0 -0 -0 -0 -0 -0 -0 -0 -0 -0 -0 -0 -0 -0 -0 -0 -0 -0 -0 -1 -1 -1 -0 -0 -0
-0 -0 -0 -0 -0 -0 -0 -0 -0 -0 -0 -0 -0 -0 -0 -0 -0 -0 -0 -0 -0 -0 -0 -0 -0 -0 -0 -0 -0 -0 -0 -0 -0 -0 -0 -0 -2 -1 -0 -0 -0 -0 -0
-0 -0 -0 -0 -0 -0 -0 -0 -0 -0 -0 -0 -0 -0 -0 -0 -0 -0 -0 -0 -0 -0 -0 -0 -0 -0 -0 -0 -0 -0 -0 -0 -0 -0 -0 -0 -0 -0 -0 -0 -0 -0 -0
-0 -0 -0 -0 -0 -0 -0 -0 -0 -0 -0 -0 -0 -0 -0 -0 -0 -0 -0 -0 -0 -0 -0 -0 -0 -0 -0 -0 -0 -0 -0 -0 -0 -0 -0 -0 -0 -0 -0 -0 -0 -0 -0
-0 -0 -0 -0 -0 -0 -0 -0 -0 -0 -0 -0 -0 -0 -0 -0 -0 -0 -0 -0 -0 -0 -0 -0 -0 -0 -0 -0 -0 -0 -0 -0 -0 -0 -0 -0 -0 -0 -0 -0 -0 -0 -0
-0 -0 -0 -0 -0 -0 -0 -0 -0 -0 -0 -0 -0 -0 -0 -0 -0 -0 -0 -0 -0 -0 -0 -0 -0 -0 -0 -0 -0 -0 -0 -0 -0 -0 -0 -0 -0 -0 -0 -0 -0 -0 -0
Wind_Speed
39 36 35 36 35 34 32 30 29 25 24 23 22 23 24 22 22 21 20 18 14 12 12 11 9 9 9 9 9 13 12 15 12 13 16 16 13 10 10 11 12 12 13
40 37 37 36 35 34 33 31 30 30 29 27 26 26 26 28 25 25 22 19 17 16 14 13 13 12 11 10 9 10 13 16 10 15 16 17 15 12 11 10 11 11 12
38 36 35 36 37 36 33 31 27 25 27 28 28 29 28 29 27 26 25 22 20 19 18 17 15 14 13 11 10 10 12 14 13 14 16 18 18 14 14 12 12 11 12
26 26 27 29 31 34 34 30 27 25 24 24 27 30 33 33 32 29 27 26 24 23 22 21 20 17 17 15 13 11 12 13 13 14 16 17 16 17 18 15 14 12 12
22 25 27 28 29 30 29 29 27 26 25 25 26 30 33 34 35 32 30 29 27 24 23 23 22 20 20 18 16 15 14 14 13 14 15 16 17 17 19 20 17 15 15
27 28 29 30 32 31 28 26 26 28 26 26 27 30 33 33 33 32 32 31 30 28 26 24 23 24 22 21 19 17 15 15 16 15 15 15 16 17 19 20 19 19 20
32 33 35 36 36 35 33 29 28 29 30 28 25 27 30 33 35 32 31 31 31 31 29 26 25 24 23 22 20 18 18 17 17 17 16 15 16 15 17 19 21 22 22
36 37 38 40 39 37 35 33 31 31 31 31 32 32 29 30 32 33 34 32 32 32 31 29 27 25 22 21 19 19 18 17 16 15 20 15 14 15 18 19 20 25 26
39 41 41 42 40 39 39 36 35 34 34 34 34 35 35 34 33 33 33 34 33 31 29 29 28 27 24 20 19 20 19 17 16 16 16 15 16 17 19 19 19 22 29
40 40 43 42 37 38 39 38 35 35 34 35 34 35 35 34 35 35 36 35 33 31 29 28 27 27 26 21 21 20 18 18 16 15 14 15 19 18 19 21 20 23 25
39 42 41 37 35 32 34 33 33 33 34 34 36 37 35 33 33 34 34 33 31 30 29 27 26 25 24 22 21 20 18 17 16 16 15 19 18 19 21 22 22 25 25
39 40 38 33 31 29 31 29 30 31 30 32 35 36 35 32 31 32 30 28 28 27 26 25 24 22 21 20 19 18 17 17 16 17 19 19 18 20 20 23 25 28 27
40 40 37 34 35 33 29 29 27 28 27 29 29 32 33 31 29 28 26 25 24 24 23 22 22 20 19 18 17 16 17 16 18 19 19 22 24 23 22 26 25 28 30
38 36 35 34 33 32 30 31 29 27 26 29 27 31 30 27 25 23 22 20 20 19 19 18 18 17 16 15 14 14 16 16 17 19 20 22 24 22 25 25 27 29 32
36 35 34 33 32 33 33 32 30 28 25 26 29 30 26 22 20 17 16 15 15 15 14 13 13 13 12 13 13 14 14 17 19 20 20 21 22 24 25 27 28 30 32
32 32 31 32 31 33 32 30 29 26 21 18 20 20 18 15 14 12 11 11 12 11 11 11 10 10 10 9 9 11 15 18 21 22 24 23 25 27 27 28 28 29 32
29 29 29 30 29 29 29 28 23 21 17 12 16 17 14 13 11 8 8 8 8 8 7 7 6 8 9 8 10 11 14 18 21 20 21 24 26 27 29 28 29 31 32
23 26 24 26 25 23 25 23 24 21 21 19 16 13 12 11 9 8 7 7 6 5 4 6 5 6 8 10 11 13 15 15 16 19 21 25 28 27 27 29 31 31 32
25 25 24 24 23 25 23 24 25 23 22 19 21 19 19 9 8 8 7 6 4 5 4 3 6 6 10 10 10 13 16 16 18 22 24 24 26 27 30 31 33 34 34
26 28 28 28 29 26 25 26 26 28 25 24 22 23 22 20 17 13 11 8 7 5 5 7 8 8 9 10 11 14 17 19 20 22 25 28 28 29 30 32 34 38 39
25 26 28 28 29 30 29 31 29 30 25 28 29 29 28 27 26 21 16 15 11 11 11 10 12 11 13 15 16 17 20 22 24 26 27 28 29 30 31 34 35 37 36
23 25 26 27 28 28 28 30 32 29 31 31 32 32 30 29 28 27 24 21 12 14 15 16 16 16 17 18 19 21 22 22 24 27 28 28 29 32 34 36 36 36 35
19 21 23 24 25 26 26 27 28 28 29 29 29 29 28 26 25 25 23 21 19 18 17 16 17 18 19 20 21 22 24 25 27 27 29 31 32 34 35 34 33 32 30
16 17 19 20 21 22 23 24 24 25 25 26 26 26 25 24 23 22 21 20 19 18 18 18 19 20 21 22 23 24 26 28 29 29 28 31 33 32 32 30 28 25 23
13 14 16 17 18 19 20 20 22 22 23 23 23 23 22 22 22 21 21 20 20 19 19 20 20 23 24 24 24 26 28 29 30 28 30 32 31 31 29 26 24 22 23
11 12 13 14 15 17 17 18 18 19 20 20 21 21 21 21 21 21 21 21 21 21 21 20 21 21 22 24 27 27 28 29 29 29 30 29 28 26 25 23 22 20 22
Wind_Direction
285 288 286 284 284 281 279 274 270 268 268 267 267 268 264 265 269 269 269 269 262 249 249 262 260 258 259 267 283 307 315 320 327 332 332 338 345 351 348 345 346 348 351
287 290 289 287 284 282 280 279 273 270 267 266 267 272 270 269 266 268 268 264 259 255 248 251 254 253 264 270 275 294 308 315 318 320 325 324 330 336 341 341 339 339 343
291 294 294 291 288 283 280 279 280 277 270 265 267 270 274 277 269 267 266 263 257 256 255 252 254 250 251 252 254 271 291 304 307 312 319 320 318 329 330 330 332 333 334
309 312 312 308 302 294 286 280 278 280 278 273 269 267 267 268 268 265 262 261 257 258 256 253 255 251 255 259 262 268 280 297 299 307 307 317 324 320 320 324 326 326 326
324 321 320 320 319 311 304 286 280 279 278 275 271 272 272 272 272 269 264 261 258 255 255 256 256 256 254 259 259 264 270 283 290 301 307 310 314 316 316 316 319 319 320
320 320 321 319 318 320 314 308 295 288 283 278 274 271 272 272 272 268 266 264 260 259 257 254 253 259 260 259 262 264 266 273 284 289 297 300 306 308 311 312 316 317 321
317 317 316 315 313 313 313 307 303 298 295 288 280 276 275 274 270 267 266 265 261 260 256 255 257 256 259 261 263 262 268 275 280 284 289 296 303 310 311 313 313 313 320
316 315 314 312 310 310 309 309 301 298 298 293 289 284 280 279 276 271 268 266 264 262 258 254 257 257 256 259 261 265 269 274 281 283 292 295 306 308 311 311 312 312 315
314 313 313 312 311 308 306 304 301 297 295 294 290 286 282 280 278 275 271 269 266 266 261 257 256 258 256 256 258 263 265 270 278 287 280 292 306 310 312 311 314 312 312
318 318 316 315 315 312 309 305 302 298 296 295 293 289 286 283 281 279 274 271 269 265 262 259 258 256 258 260 261 264 266 269 274 285 277 292 299 309 313 313 316 311 314
326 323 323 324 324 322 319 318 311 305 302 298 294 290 287 285 285 281 277 272 270 267 264 261 258 257 256 260 263 265 264 270 273 287 285 292 296 304 308 312 314 313 316
331 330 329 331 332 330 329 323 322 319 315 305 297 292 289 287 285 284 280 274 269 268 264 260 258 256 255 258 261 263 265 271 272 289 294 294 298 303 308 311 309 312 315
332 328 328 330 324 333 335 334 326 324 322 313 306 300 292 287 287 287 282 276 271 268 264 260 256 254 255 256 259 261 268 271 284 289 297 294 295 305 310 308 312 313 315
336 338 334 336 326 337 341 342 340 329 325 314 310 298 296 293 293 290 283 278 274 271 265 260 257 257 258 258 264 267 274 281 292 295 299 298 303 314 311 311 313 315 316
343 343 345 341 339 336 341 346 351 349 335 320 303 294 304 300 297 296 288 283 274 272 264 259 260 261 258 268 272 278 281 288 295 299 304 307 311 312 314 316 317 317 318
352 350 354 352 350 343 352 357 0 6 10 350 323 317 316 319 314 304 297 292 279 271 262 259 256 254 274 277 285 288 292 296 298 298 303 310 311 313 318 320 320 320 319
0 0 5 2 8 8 8 9 18 22 27 38 353 330 326 318 324 319 317 310 298 276 268 261 257 271 288 290 293 295 303 304 304 304 310 309 314 319 320 323 323 322 322
14 8 21 19 22 28 26 31 27 41 47 64 103 54 356 323 328 339 337 323 305 291 272 274 282 293 300 304 307 312 315 329 324 316 322 321 321 326 327 324 323 324 325
18 14 23 24 34 27 39 41 47 56 70 103 90 111 133 315 333 327 1 332 16 286 310 331 312 318 313 339 342 325 322 331 331 326 331 334 331 329 326 325 325 325 325
31 27 29 24 25 37 48 51 53 59 80 78 89 94 77 66 60 44 36 42 40 23 356 6 359 356 341 354 348 347 342 341 340 337 335 332 330 330 329 328 327 325 325
39 34 34 28 27 47 47 60 69 67 101 89 84 80 90 74 72 62 53 54 39 33 24 6 15 6 348 355 356 351 344 341 338 336 335 335 334 333 332 330 329 327 327
44 37 31 37 38 47 50 60 63 91 81 72 75 73 69 74 70 73 65 61 32 38 42 42 32 15 1 356 354 351 349 349 343 339 339 337 336 335 333 331 329 329 329
42 40 39 36 44 45 58 51 68 62 71 68 68 68 68 65 67 67 66 59 51 46 36 23 14 9 5 0 356 353 350 347 343 342 340 338 338 335 334 334 334 335 336
39 48 47 38 32 41 48 54 60 66 63 61 61 63 61 57 53 50 47 44 39 31 24 17 10 3 360 357 357 354 351 347 345 345 345 342 341 341 340 342 345 350 353
50 55 56 46 39 47 45 52 65 65 59 56 56 53 51 49 45 38 36 32 29 27 20 14 9 1 356 357 356 354 351 349 348 348 346 345 347 347 350 356 1 4 360
54 44 52 49 41 50 47 52 60 62 59 55 57 56 54 50 44 39 32 28 25 21 18 18 13 8 4 359 356 355 354 353 353 352 351 354 355 359 4 7 9 14 5